Location: Diati
(11.8376°N, 2.5966°E)
Time: 17:25:35
(UTC+00:00)

Cosmos 2285 Rocket - Pass Details

Date: 21 September 2020
Orbit: 970 x 1000 km, 74.0° (Epoch: 19 October)

Event Time Altitude Azimuth Distance (km) Brightness Sun altitude
Rises 18:59:53 0° 195° (SSW) 3,652 7.1 -18.9°
Reaches altitude 10° 19:02:25 10° 195° (SSW) 2,705 6.4 -19.5°
Maximum altitude 19:08:40 81° 282° (WNW) 983 4.0 -21.0°
Drops below altitude 10° 19:14:57 10° 10° (N) 2,713 6.3 -22.5°
Sets 19:17:30 0° 11° (NNE) 3,664 7.0 -23.2°
